Weather History for KNUW - June, 2013

Change the Weather History Date:

Thursday, June 13, 2013

  Actual Average Record
Temperature  
Mean Temperature 54 °F -  
Max Temperature 60 °F 61 °F 81 °F (2002)
Min Temperature 51 °F 47 °F 45 °F (2001)
Degree Days  
Heating Degree Days 11    
Growing Degree Days 4 (Base 50)    
Moisture  
Dew Point 48 °F    
Average Humidity 81    
Maximum Humidity 92    
Minimum Humidity 72    
Precipitation  
Precipitation 0.00 in - - ()
Sea Level Pressure  
Sea Level Pressure 30.20 in    
Wind  
Wind Speed 5 mph (SW)    
Max Wind Speed 18 mph    
Max Gust Speed 25 mph    
Visibility 10 miles    
Events Rain    
Averages and records for this station are not official NWS values.
T = Trace of Precipitation, MM = Missing Value Source: NWS Daily Summary

Daily Weather History Graph

Daily Weather History Graph

Search for Another Location

Airport or City:

Trip Planner

Search our weather history database for the weather conditions in past years. The results will help you decide how hot, cold, wet, or windy it might be!

Date:

Astronomy

Jun. 13, 2013 Rise Set
Actual Time 5:09 AM PDT 9:12 PM PDT
Civil Twilight 4:27 AM PDT 9:54 PM PDT
Nautical Twilight 3:29 AM PDT 10:52 PM PDT
Astronomical Twilight 1:45 AM PDT 12:38 AM PDT
Moon 10:10 AM PDT (6/13) 11:59 PM PDT (6/13)
Length of Visible Light 17h 27m
Length of Day
16h 03m
Waxing Crescent, 22% of the Moon is Illuminated
Jun 13
Waxing Crescent
Jun 16
First Quarter
Jun 23
Full
Jun 29
Last Quarter
Jul 8
New

Hourly Weather History & Observations

Time (PDT) Temp. Dew Point Humidity Pressure Visibility Wind Dir Wind Speed Gust Speed Precip Events Conditions
12:56 AM 52.0 °F 46.9 °F 83% 30.17 in 10.0 mi Calm Calm - N/A   Mostly Cloudy
1:56 AM 52.0 °F 46.9 °F 83% 30.17 in 10.0 mi Calm Calm - 0.00 in Rain Light Rain
2:56 AM 52.0 °F 48.0 °F 86% 30.17 in 10.0 mi Calm Calm - 0.00 in   Overcast
3:40 AM 51.8 °F 48.2 °F 88% 30.16 in 10.0 mi Calm Calm - 0.00 in Rain Light Rain
3:56 AM 52.0 °F 48.0 °F 86% 30.17 in 10.0 mi SW 4.6 mph - 0.00 in Rain Light Rain
4:56 AM 51.1 °F 48.0 °F 89% 30.17 in 10.0 mi SSW 4.6 mph - 0.00 in   Overcast
5:56 AM 51.1 °F 48.9 °F 92% 30.18 in 10.0 mi SSW 3.5 mph - N/A   Mostly Cloudy
6:56 AM 52.0 °F 48.9 °F 89% 30.18 in 10.0 mi South 5.8 mph - N/A   Overcast
7:56 AM 53.1 °F 48.9 °F 86% 30.19 in 10.0 mi SW 6.9 mph - N/A   Scattered Clouds
8:56 AM 53.1 °F 48.9 °F 86% 30.20 in 10.0 mi SW 5.8 mph - N/A   Mostly Cloudy
9:56 AM 54.0 °F 48.9 °F 83% 30.20 in 10.0 mi WSW 4.6 mph - N/A   Mostly Cloudy
10:56 AM 55.9 °F 48.9 °F 77% 30.20 in 10.0 mi WSW 8.1 mph - N/A   Mostly Cloudy
11:56 AM 57.0 °F 50.0 °F 77% 30.22 in 10.0 mi West 6.9 mph - N/A   Mostly Cloudy
12:56 PM 55.0 °F 48.9 °F 80% 30.22 in 10.0 mi West 8.1 mph - N/A   Mostly Cloudy
1:56 PM 55.9 °F 50.0 °F 80% 30.21 in 10.0 mi WSW 6.9 mph - N/A   Mostly Cloudy
2:56 PM 57.9 °F 50.0 °F 75% 30.21 in 10.0 mi West 5.8 mph - N/A   Scattered Clouds
3:56 PM 57.9 °F 48.9 °F 72% 30.21 in 10.0 mi WSW 11.5 mph - N/A   Scattered Clouds
4:56 PM 57.0 °F 50.0 °F 77% 30.21 in 10.0 mi WSW 10.4 mph - N/A   Scattered Clouds
5:56 PM 57.9 °F 48.9 °F 72% 30.21 in 10.0 mi SW 15.0 mph - N/A   Scattered Clouds
6:56 PM 55.9 °F 48.0 °F 75% 30.21 in 10.0 mi SW 12.7 mph - N/A   Mostly Cloudy
7:56 PM 55.0 °F 46.9 °F 74% 30.20 in 10.0 mi SW 18.4 mph 25.3 mph N/A   Mostly Cloudy
8:56 PM 53.1 °F 46.9 °F 80% 30.21 in 10.0 mi SW 16.1 mph - N/A   Mostly Cloudy
9:56 PM 53.1 °F 46.9 °F 80% 30.22 in 10.0 mi WSW 18.4 mph 23.0 mph N/A   Mostly Cloudy
10:56 PM 53.1 °F 46.9 °F 80% 30.23 in 10.0 mi SW 10.4 mph - N/A   Overcast
11:56 PM 52.0 °F 46.9 °F 83% 30.24 in 10.0 mi SW 12.7 mph - N/A   Overcast